User: anonymous   Login
Location: ??
(35.5052°N, 139.7262°E)
Time: 02:58:35
(UTC+00:00)
Language:

CZ-4C R/B - Orbit

View from above orbital plane
View from above orbital plane
View from above satellite
View from above satellite

Ground track
Ground track

The orbit data is extracted from the following two-line orbital elements,

1 36416U 10009D   21270.34274306 -.00000078  00000-0  15343-4 0  9997
2 36416  63.4206  25.1062 0540690 355.7782   3.8785 13.69602506578267
Epoch (UTC): 27 September 2021 08:13:33
Eccentricity: 0.0540690
inclination: 63.4206°
perigee height: 602 km
apogee height: 1400 km
right ascension of ascending node: 25.1062°
argument of perigee: 355.7782°
revolutions per day: 13.69602506
mean anomaly at epoch: 3.8785°
orbit number at epoch: 57826

The dashed part of the orbit path shows where the satellite is in the earth's shadow,  

DLR